Time,TemperatureF,DewpointF,PressureIn,WindDirection,WindDirectionDegrees,WindSpeedMPH,WindSpeedGustMPH,Humidity,HourlyPrecipIn,Conditions,Clouds,dailyrainin,SoftwareType,DateUTC
2013-04-19 00:01:00,37.2,30.0,29.62,West,275,11.0,12.0,75,0.00,,,2.19,Wunderground v.1.15,2013-04-19 05:01:00,
2013-04-19 00:03:00,37.2,30.3,29.62,West,267,11.0,12.0,76,0.00,,,2.19,Wunderground v.1.15,2013-04-19 05:03:00,
2013-04-19 00:07:00,37.2,30.3,29.62,NW,305,10.0,12.0,76,0.00,,,2.19,Wunderground v.1.15,2013-04-19 05:07:00,
2013-04-19 00:10:00,37.2,30.3,29.62,WSW,253,9.0,12.0,76,0.00,,,2.19,Wunderground v.1.15,2013-04-19 05:10:00,
2013-04-19 00:13:00,37.0,30.5,29.62,NNW,332,9.0,9.0,77,0.00,,,2.19,Wunderground v.1.15,2013-04-19 05:13:00,
2013-04-19 00:15:00,37.0,30.1,29.62,SW,223,9.0,11.0,76,0.00,,,2.19,Wunderground v.1.15,2013-04-19 05:15:00,
2013-04-19 00:17:00,37.0,30.1,29.62,West,265,9.0,11.0,76,0.00,,,2.19,Wunderground v.1.15,2013-04-19 05:17:00,
2013-04-19 00:20:00,37.0,30.1,29.62,West,281,10.0,12.0,76,0.00,,,0.00,Wunderground v.1.15,2013-04-19 05:20:00,
2013-04-19 00:21:00,37.0,30.1,29.62,WSW,250,10.0,10.0,76,0.00,,,0.00,Wunderground v.1.15,2013-04-19 05:21:00,
2013-04-19 00:25:00,37.0,30.1,29.62,WSW,241,10.0,10.0,76,0.00,,,0.00,Wunderground v.1.15,2013-04-19 05:25:00,
2013-04-19 00:27:00,37.0,30.1,29.62,WNW,287,10.0,10.0,76,0.00,,,0.00,Wunderground v.1.15,2013-04-19 05:27:00,
2013-04-19 00:30:00,37.0,30.1,29.62,SW,227,9.0,10.0,76,0.00,,,0.00,Wunderground v.1.15,2013-04-19 05:30:00,
2013-04-19 00:31:00,37.0,30.1,29.62,WSW,244,9.0,18.0,76,0.00,,,0.00,Wunderground v.1.15,2013-04-19 05:31:00,
2013-04-19 00:35:00,37.0,30.1,29.61,West,270,9.0,18.0,76,0.00,,,0.00,Wunderground v.1.15,2013-04-19 05:35:00,
2013-04-19 00:37:00,37.0,29.8,29.61,WNW,287,9.0,18.0,75,0.00,,,0.00,Wunderground v.1.15,2013-04-19 05:37:00,
2013-04-19 00:41:00,37.0,29.5,29.61,West,265,10.0,13.0,74,0.00,,,0.00,Wunderground v.1.15,2013-04-19 05:41:00,
2013-04-19 00:43:00,37.0,29.5,29.61,WSW,246,10.0,13.0,74,0.00,,,0.00,Wunderground v.1.15,2013-04-19 05:43:00,
2013-04-19 00:50:00,37.0,29.1,29.61,West,263,10.0,13.0,73,0.00,,,0.00,Wunderground v.1.15,2013-04-19 05:50:00,
2013-04-19 00:51:00,37.0,29.1,29.61,NNW,343,10.0,11.0,73,0.00,,,0.00,Wunderground v.1.15,2013-04-19 05:51:00,
2013-04-19 00:53:00,37.0,29.1,29.61,NW,318,10.0,11.0,73,0.00,,,0.00,Wunderground v.1.15,2013-04-19 05:53:00,
2013-04-19 00:57:00,37.0,28.8,29.61,West,264,10.0,17.0,72,0.00,,,0.00,Wunderground v.1.15,2013-04-19 05:57:00,
2013-04-19 01:01:00,37.0,28.8,29.61,West,271,11.0,16.0,72,0.00,,,0.00,Wunderground v.1.15,2013-04-19 06:01:00,
2013-04-19 01:03:00,37.0,28.8,29.61,WNW,288,11.0,16.0,72,0.00,,,0.00,Wunderground v.1.15,2013-04-19 06:03:00,
2013-04-19 01:05:00,37.0,29.1,29.61,SW,232,11.0,16.0,73,0.00,,,0.00,Wunderground v.1.15,2013-04-19 06:05:00,
2013-04-19 01:11:00,36.9,28.7,29.61,WSW,258,9.0,24.0,72,0.00,,,0.00,Wunderground v.1.15,2013-04-19 06:11:00,
2013-04-19 01:13:00,36.9,28.7,29.61,NW,326,10.0,24.0,72,0.00,,,0.00,Wunderground v.1.15,2013-04-19 06:13:00,
2013-04-19 01:15:00,36.9,29.1,29.61,WNW,285,11.0,24.0,73,0.00,,,0.00,Wunderground v.1.15,2013-04-19 06:15:00,
2013-04-19 01:20:00,36.7,28.9,29.61,NNW,335,11.0,24.0,73,0.00,,,0.00,Wunderground v.1.15,2013-04-19 06:20:00,
2013-04-19 01:21:00,36.7,28.9,29.61,WSW,253,11.0,11.0,73,0.00,,,0.00,Wunderground v.1.15,2013-04-19 06:21:00,
2013-04-19 01:23:00,36.7,29.2,29.61,West,263,9.0,11.0,74,0.00,,,0.00,Wunderground v.1.15,2013-04-19 06:23:00,
2013-04-19 01:25:00,36.7,29.2,29.61,West,261,9.0,11.0,74,0.00,,,0.00,Wunderground v.1.15,2013-04-19 06:25:00,
2013-04-19 01:27:00,36.7,29.2,29.61,WSW,250,9.0,11.0,74,0.00,,,0.00,Wunderground v.1.15,2013-04-19 06:27:00,
2013-04-19 01:31:00,36.7,29.5,29.61,WSW,254,8.0,8.0,75,0.00,,,0.00,Wunderground v.1.15,2013-04-19 06:31:00,
2013-04-19 01:33:00,36.7,29.5,29.61,WSW,246,8.0,8.0,75,0.00,,,0.00,Wunderground v.1.15,2013-04-19 06:33:00,
2013-04-19 01:38:00,36.7,29.5,29.61,West,272,8.0,8.0,75,0.00,,,0.00,Wunderground v.1.15,2013-04-19 06:38:00,
2013-04-19 01:40:00,36.7,29.5,29.61,WSW,247,9.0,9.0,75,0.00,,,0.00,Wunderground v.1.15,2013-04-19 06:40:00,
2013-04-19 01:45:00,36.6,29.4,29.61,WSW,244,9.0,16.0,75,0.00,,,0.00,Wunderground v.1.15,2013-04-19 06:45:00,
2013-04-19 01:47:00,36.6,29.1,29.61,West,267,8.0,16.0,74,0.00,,,0.00,Wunderground v.1.15,2013-04-19 06:47:00,
2013-04-19 01:51:00,36.7,29.5,29.61,NW,313,8.0,11.0,75,0.00,,,0.00,Wunderground v.1.15,2013-04-19 06:51:00,
2013-04-19 01:53:00,36.6,29.4,29.61,WNW,284,8.0,11.0,75,0.00,,,0.00,Wunderground v.1.15,2013-04-19 06:53:00,
2013-04-19 01:57:00,36.7,29.5,29.61,SW,230,7.0,11.0,75,0.00,,,0.00,Wunderground v.1.15,2013-04-19 06:57:00,
2013-04-19 02:00:00,36.6,29.7,29.61,WSW,243,7.0,10.0,76,0.00,,,0.00,Wunderground v.1.15,2013-04-19 07:00:00,
2013-04-19 02:01:00,36.6,29.7,29.61,NNW,344,8.0,10.0,76,0.00,,,0.00,Wunderground v.1.15,2013-04-19 07:01:00,
2013-04-19 02:03:00,36.6,29.7,29.61,SW,215,8.0,10.0,76,0.00,,,0.00,Wunderground v.1.15,2013-04-19 07:03:00,
2013-04-19 02:10:00,36.6,30.1,29.61,WSW,247,9.0,9.0,77,0.00,,,0.00,Wunderground v.1.15,2013-04-19 07:10:00,
2013-04-19 02:11:00,36.6,30.1,29.61,West,272,8.0,9.0,77,0.00,,,0.00,Wunderground v.1.15,2013-04-19 07:11:00,
2013-04-19 02:15:00,36.6,30.1,29.61,NW,319,9.0,10.0,77,0.00,,,0.00,Wunderground v.1.15,2013-04-19 07:15:00,
2013-04-19 02:17:00,36.4,30.2,29.61,WSW,257,8.0,10.0,78,0.00,,,0.00,Wunderground v.1.15,2013-04-19 07:17:00,
2013-04-19 02:23:00,36.4,30.2,29.61,WNW,294,9.0,9.0,78,0.00,,,0.00,Wunderground v.1.15,2013-04-19 07:23:00,
2013-04-19 02:28:00,36.4,30.2,29.61,West,281,9.0,24.0,78,0.00,,,0.00,Wunderground v.1.15,2013-04-19 07:28:00,
2013-04-19 02:31:00,36.4,30.2,29.61,NNW,328,9.0,9.0,78,0.00,,,0.00,Wunderground v.1.15,2013-04-19 07:31:00,
2013-04-19 02:41:00,36.3,30.7,29.61,WSW,257,5.0,5.0,80,0.00,,,0.00,Wunderground v.1.15,2013-04-19 07:41:00,
2013-04-19 02:45:00,36.3,31.0,29.61,North,353,4.0,8.0,81,0.00,,,0.00,Wunderground v.1.15,2013-04-19 07:45:00,
2013-04-19 02:47:00,36.2,31.2,29.61,NW,308,4.0,8.0,82,0.00,,,0.00,Wunderground v.1.15,2013-04-19 07:47:00,
2013-04-19 02:51:00,36.0,31.0,29.61,West,272,5.0,11.0,82,0.00,,,0.00,Wunderground v.1.15,2013-04-19 07:51:00,
2013-04-19 02:53:00,35.9,30.9,29.61,NW,312,7.0,16.0,82,0.00,,,0.00,Wunderground v.1.15,2013-04-19 07:53:00,
2013-04-19 03:00:00,35.0,30.1,29.61,WNW,298,8.0,16.0,82,0.00,,,0.00,Wunderground v.1.15,2013-04-19 08:00:00,
2013-04-19 03:01:00,34.9,30.3,29.61,WSW,237,9.0,9.0,83,0.00,,,0.00,Wunderground v.1.15,2013-04-19 08:01:00,
2013-04-19 03:03:00,34.9,30.3,29.61,North,354,8.0,11.0,83,0.00,,,0.00,Wunderground v.1.15,2013-04-19 08:03:00,
2013-04-19 03:07:00,34.9,30.3,29.61,West,268,8.0,11.0,83,0.00,,,0.00,Wunderground v.1.15,2013-04-19 08:07:00,
2013-04-19 03:10:00,34.9,30.3,29.61,West,272,8.0,11.0,83,0.00,,,0.00,Wunderground v.1.15,2013-04-19 08:10:00,
2013-04-19 03:13:00,35.0,29.8,29.61,West,272,8.0,14.0,81,0.00,,,0.00,Wunderground v.1.15,2013-04-19 08:13:00,
2013-04-19 03:18:00,35.2,29.6,29.61,SW,236,8.0,14.0,80,0.00,,,0.00,Wunderground v.1.15,2013-04-19 08:18:00,
2013-04-19 03:20:00,35.3,29.7,29.61,West,270,8.0,14.0,80,0.00,,,0.00,Wunderground v.1.15,2013-04-19 08:20:00,
2013-04-19 03:23:00,35.3,29.4,29.61,WNW,295,8.0,8.0,79,0.00,,,0.00,Wunderground v.1.15,2013-04-19 08:23:00,
2013-04-19 03:25:00,35.4,29.5,29.61,West,271,8.0,11.0,79,0.00,,,0.00,Wunderground v.1.15,2013-04-19 08:25:00,
2013-04-19 03:28:00,35.4,29.5,29.61,SW,233,8.0,11.0,79,0.00,,,0.00,Wunderground v.1.15,2013-04-19 08:28:00,
2013-04-19 03:30:00,35.4,29.5,29.61,West,270,9.0,14.0,79,0.00,,,0.00,Wunderground v.1.15,2013-04-19 08:30:00,
2013-04-19 03:31:00,35.4,29.2,29.61,WSW,258,9.0,12.0,78,0.00,,,0.00,Wunderground v.1.15,2013-04-19 08:31:00,
2013-04-19 03:33:00,35.4,28.9,29.62,WSW,254,9.0,12.0,77,0.00,,,0.00,Wunderground v.1.15,2013-04-19 08:33:00,
2013-04-19 03:40:00,35.4,29.2,29.62,WSW,251,10.0,13.0,78,0.00,,,0.00,Wunderground v.1.15,2013-04-19 08:40:00,
2013-04-19 03:41:00,35.4,29.2,29.62,NW,306,9.0,13.0,78,0.00,,,0.00,Wunderground v.1.15,2013-04-19 08:41:00,
2013-04-19 03:43:00,35.4,29.2,29.62,WNW,292,9.0,13.0,78,0.00,,,0.00,Wunderground v.1.15,2013-04-19 08:43:00,
2013-04-19 03:47:00,35.3,28.5,29.63,WNW,296,9.0,13.0,76,0.00,,,0.00,Wunderground v.1.15,2013-04-19 08:47:00,
2013-04-19 03:51:00,35.3,28.5,29.63,WSW,247,9.0,9.0,76,0.00,,,0.00,Wunderground v.1.15,2013-04-19 08:51:00,
2013-04-19 03:53:00,35.3,28.5,29.63,NNW,330,9.0,9.0,76,0.00,,,0.00,Wunderground v.1.15,2013-04-19 08:53:00,
2013-04-19 03:58:00,35.3,28.5,29.63,WNW,282,8.0,12.0,76,0.00,,,0.00,Wunderground v.1.15,2013-04-19 08:58:00,
2013-04-19 04:00:00,35.3,28.5,29.63,NW,313,8.0,12.0,76,0.00,,,0.00,Wunderground v.1.15,2013-04-19 09:00:00,
2013-04-19 04:03:00,35.3,28.5,29.63,SW,224,8.0,12.0,76,0.00,,,0.00,Wunderground v.1.15,2013-04-19 09:03:00,
2013-04-19 04:05:00,35.3,28.5,29.63,WSW,258,8.0,17.0,76,0.00,,,0.00,Wunderground v.1.15,2013-04-19 09:05:00,
2013-04-19 04:10:00,35.3,28.5,29.63,West,260,9.0,17.0,76,0.00,,,0.00,Wunderground v.1.15,2013-04-19 09:10:00,
2013-04-19 04:11:00,35.3,28.5,29.63,NW,306,10.0,14.0,76,0.00,,,0.00,Wunderground v.1.15,2013-04-19 09:11:00,
2013-04-19 04:13:00,35.3,28.8,29.63,WSW,253,10.0,14.0,77,0.00,,,0.00,Wunderground v.1.15,2013-04-19 09:13:00,
2013-04-19 04:15:00,35.3,28.8,29.63,NW,305,10.0,14.0,77,0.00,,,0.00,Wunderground v.1.15,2013-04-19 09:15:00,
2013-04-19 04:21:00,35.3,29.1,29.63,WNW,301,8.0,11.0,78,0.00,,,0.00,Wunderground v.1.15,2013-04-19 09:21:00,
2013-04-19 04:23:00,35.2,28.7,29.63,West,260,9.0,11.0,77,0.00,,,0.00,Wunderground v.1.15,2013-04-19 09:23:00,
2013-04-19 04:27:00,35.2,28.7,29.63,WNW,288,8.0,11.0,77,0.00,,,0.00,Wunderground v.1.15,2013-04-19 09:27:00,
2013-04-19 04:31:00,35.2,28.7,29.63,WNW,288,8.0,13.0,77,0.00,,,0.00,Wunderground v.1.15,2013-04-19 09:31:00,
2013-04-19 04:33:00,35.2,28.4,29.63,SW,223,8.0,13.0,76,0.00,,,0.00,Wunderground v.1.15,2013-04-19 09:33:00,
2013-04-19 04:37:00,35.2,28.7,29.63,West,265,8.0,13.0,77,0.00,,,0.00,Wunderground v.1.15,2013-04-19 09:37:00,
2013-04-19 04:41:00,35.2,28.7,29.63,WSW,243,9.0,9.0,77,0.00,,,0.00,Wunderground v.1.15,2013-04-19 09:41:00,
2013-04-19 04:43:00,35.2,28.7,29.63,WSW,251,9.0,13.0,77,0.00,,,0.00,Wunderground v.1.15,2013-04-19 09:43:00,
2013-04-19 04:45:00,35.2,28.4,29.63,WSW,254,9.0,13.0,76,0.00,,,0.00,Wunderground v.1.15,2013-04-19 09:45:00,
2013-04-19 04:50:00,35.2,28.7,29.63,WNW,302,8.0,13.0,77,0.00,,,0.00,Wunderground v.1.15,2013-04-19 09:50:00,
2013-04-19 04:51:00,35.2,28.7,29.63,WSW,257,8.0,9.0,77,0.00,,,0.00,Wunderground v.1.15,2013-04-19 09:51:00,
2013-04-19 04:53:00,35.2,28.7,29.63,NW,322,8.0,9.0,77,0.00,,,0.00,Wunderground v.1.15,2013-04-19 09:53:00,
2013-04-19 05:00:00,35.2,28.7,29.63,West,278,8.0,20.0,77,0.00,,,0.00,Wunderground v.1.15,2013-04-19 10:00:00,
2013-04-19 05:07:00,35.2,28.7,29.63,West,265,9.0,9.0,77,0.00,,,0.00,Wunderground v.1.15,2013-04-19 10:07:00,
2013-04-19 05:10:00,35.2,28.7,29.63,SW,224,8.0,9.0,77,0.00,,,0.00,Wunderground v.1.15,2013-04-19 10:10:00,
2013-04-19 05:13:00,35.2,28.7,29.63,WSW,239,8.0,11.0,77,0.00,,,0.00,Wunderground v.1.15,2013-04-19 10:13:00,
2013-04-19 05:15:00,35.2,28.7,29.63,SW,224,9.0,11.0,77,0.00,,,0.00,Wunderground v.1.15,2013-04-19 10:15:00,
2013-04-19 05:17:00,35.2,28.7,29.63,SW,236,8.0,11.0,77,0.00,,,0.00,Wunderground v.1.15,2013-04-19 10:17:00,
2013-04-19 05:20:00,35.2,28.7,29.63,West,277,8.0,11.0,77,0.00,,,0.00,Wunderground v.1.15,2013-04-19 10:20:00,
2013-04-19 05:25:00,35.2,28.7,29.63,WSW,250,7.0,8.0,77,0.00,,,0.00,Wunderground v.1.15,2013-04-19 10:25:00,
2013-04-19 05:28:00,35.2,28.7,29.63,WSW,247,7.0,13.0,77,0.00,,,0.00,Wunderground v.1.15,2013-04-19 10:28:00,
2013-04-19 05:30:00,35.2,28.7,29.63,WNW,285,7.0,13.0,77,0.00,,,0.00,Wunderground v.1.15,2013-04-19 10:30:00,
2013-04-19 05:31:00,35.2,28.7,29.63,West,278,7.0,7.0,77,0.00,,,0.00,Wunderground v.1.15,2013-04-19 10:31:00,
2013-04-19 05:33:00,35.2,29.0,29.63,West,275,7.0,14.0,78,0.00,,,0.00,Wunderground v.1.15,2013-04-19 10:33:00,
2013-04-19 05:35:00,35.2,28.7,29.63,SW,234,8.0,14.0,77,0.00,,,0.00,Wunderground v.1.15,2013-04-19 10:35:00,
2013-04-19 05:37:00,35.2,28.7,29.63,WNW,298,8.0,14.0,77,0.00,,,0.00,Wunderground v.1.15,2013-04-19 10:37:00,
2013-04-19 05:41:00,35.2,28.7,29.63,NNW,332,8.0,12.0,77,0.00,,,0.00,Wunderground v.1.15,2013-04-19 10:41:00,
2013-04-19 05:43:00,35.2,28.7,29.63,WSW,257,8.0,13.0,77,0.00,,,0.00,Wunderground v.1.15,2013-04-19 10:43:00,
2013-04-19 05:47:00,35.2,28.7,29.63,West,265,8.0,13.0,77,0.00,,,0.00,Wunderground v.1.15,2013-04-19 10:47:00,
2013-04-19 05:50:00,35.2,28.7,29.63,West,277,9.0,13.0,77,0.00,,,0.00,Wunderground v.1.15,2013-04-19 10:50:00,
2013-04-19 05:51:00,35.2,28.7,29.63,WSW,243,8.0,8.0,77,0.00,,,0.00,Wunderground v.1.15,2013-04-19 10:51:00,
2013-04-19 05:53:00,35.2,28.7,29.63,SW,224,9.0,9.0,77,0.00,,,0.00,Wunderground v.1.15,2013-04-19 10:53:00,
2013-04-19 05:55:00,35.2,28.7,29.63,West,261,8.0,10.0,77,0.00,,,0.00,Wunderground v.1.15,2013-04-19 10:55:00,
2013-04-19 06:00:00,35.2,29.0,29.63,West,267,8.0,12.0,78,0.00,,,0.00,Wunderground v.1.15,2013-04-19 11:00:00,
2013-04-19 06:01:00,35.2,29.0,29.63,West,277,8.0,8.0,78,0.00,,,0.00,Wunderground v.1.15,2013-04-19 11:01:00,
2013-04-19 06:03:00,35.2,28.7,29.64,NW,325,9.0,9.0,77,0.00,,,0.00,Wunderground v.1.15,2013-04-19 11:03:00,
2013-04-19 06:07:00,35.0,28.5,29.64,WSW,256,9.0,12.0,77,0.00,,,0.00,Wunderground v.1.15,2013-04-19 11:07:00,
2013-04-19 06:11:00,35.0,28.5,29.64,SW,220,9.0,12.0,77,0.00,,,0.00,Wunderground v.1.15,2013-04-19 11:11:00,
2013-04-19 06:13:00,35.0,28.5,29.64,West,270,9.0,12.0,77,0.00,,,0.00,Wunderground v.1.15,2013-04-19 11:13:00,
2013-04-19 06:17:00,34.9,28.1,29.64,West,275,8.0,12.0,76,0.00,,,0.00,Wunderground v.1.15,2013-04-19 11:17:00,
2013-04-19 06:20:00,34.9,27.8,29.64,NW,306,9.0,12.0,75,0.00,,,0.00,Wunderground v.1.15,2013-04-19 11:20:00,
2013-04-19 06:21:00,34.9,27.8,29.64,NNW,330,9.0,9.0,75,0.00,,,0.00,Wunderground v.1.15,2013-04-19 11:21:00,
2013-04-19 06:23:00,34.9,27.5,29.64,WSW,241,9.0,9.0,74,0.00,,,0.00,Wunderground v.1.15,2013-04-19 11:23:00,
2013-04-19 06:25:00,34.9,27.5,29.64,SW,234,9.0,9.0,74,0.00,,,0.00,Wunderground v.1.15,2013-04-19 11:25:00,
2013-04-19 06:28:00,34.9,27.8,29.64,NW,322,10.0,10.0,75,0.00,,,0.00,Wunderground v.1.15,2013-04-19 11:28:00,
2013-04-19 06:33:00,34.7,27.9,29.65,NNW,329,9.0,13.0,76,0.00,,,0.00,Wunderground v.1.15,2013-04-19 11:33:00,
2013-04-19 06:35:00,34.7,27.9,29.65,WNW,292,9.0,13.0,76,0.00,,,0.00,Wunderground v.1.15,2013-04-19 11:35:00,
2013-04-19 06:37:00,34.7,27.9,29.65,WNW,282,8.0,13.0,76,0.00,,,0.00,Wunderground v.1.15,2013-04-19 11:37:00,
2013-04-19 06:43:00,34.7,28.2,29.65,NW,313,8.0,8.0,77,0.00,,,0.00,Wunderground v.1.15,2013-04-19 11:43:00,
2013-04-19 06:45:00,34.6,28.4,29.65,WNW,285,7.0,12.0,78,0.00,,,0.00,Wunderground v.1.15,2013-04-19 11:45:00,
2013-04-19 06:47:00,34.6,28.4,29.66,NW,305,7.0,12.0,78,0.00,,,0.00,Wunderground v.1.15,2013-04-19 11:47:00,
2013-04-19 06:51:00,34.4,28.6,29.66,NW,311,7.0,18.0,79,0.00,,,0.00,Wunderground v.1.15,2013-04-19 11:51:00,
2013-04-19 06:53:00,34.4,28.6,29.66,WSW,244,7.0,18.0,79,0.00,,,0.00,Wunderground v.1.15,2013-04-19 11:53:00,
2013-04-19 06:57:00,34.3,28.5,29.66,WNW,285,8.0,18.0,79,0.00,,,0.00,Wunderground v.1.15,2013-04-19 11:57:00,
2013-04-19 07:00:00,34.3,28.2,29.66,WSW,250,8.0,8.0,78,0.00,,,0.00,Wunderground v.1.15,2013-04-19 12:00:00,
2013-04-19 07:01:00,34.3,28.5,29.66,West,280,8.0,13.0,79,0.00,,,0.00,Wunderground v.1.15,2013-04-19 12:01:00,
2013-04-19 07:03:00,34.3,27.8,29.66,West,281,8.0,13.0,77,0.00,,,0.00,Wunderground v.1.15,2013-04-19 12:03:00,
2013-04-19 07:05:00,34.3,27.8,29.66,West,280,9.0,16.0,77,0.00,,,0.00,Wunderground v.1.15,2013-04-19 12:05:00,
2013-04-19 07:07:00,34.3,27.5,29.66,WSW,256,9.0,16.0,76,0.00,,,0.00,Wunderground v.1.15,2013-04-19 12:07:00,
2013-04-19 07:11:00,34.3,27.2,29.66,SW,232,10.0,10.0,75,0.00,,,0.00,Wunderground v.1.15,2013-04-19 12:11:00,
2013-04-19 07:13:00,34.3,27.2,29.66,West,270,10.0,10.0,75,0.00,,,0.00,Wunderground v.1.15,2013-04-19 12:13:00,
2013-04-19 07:17:00,34.3,27.5,29.66,SW,236,9.0,14.0,76,0.00,,,0.00,Wunderground v.1.15,2013-04-19 12:17:00,
2013-04-19 07:20:00,34.3,27.5,29.66,NNW,333,8.0,14.0,76,0.00,,,0.00,Wunderground v.1.15,2013-04-19 12:20:00,
2013-04-19 07:21:00,34.3,27.5,29.66,West,264,8.0,13.0,76,0.00,,,0.00,Wunderground v.1.15,2013-04-19 12:21:00,
2013-04-19 07:25:00,34.3,27.5,29.66,WSW,250,8.0,13.0,76,0.00,,,0.00,Wunderground v.1.15,2013-04-19 12:25:00,
2013-04-19 07:27:00,34.3,27.5,29.66,WNW,292,8.0,13.0,76,0.00,,,0.00,Wunderground v.1.15,2013-04-19 12:27:00,
2013-04-19 07:30:00,34.3,27.5,29.66,WNW,296,8.0,16.0,76,0.00,,,0.00,Wunderground v.1.15,2013-04-19 12:30:00,
2013-04-19 07:31:00,34.3,27.8,29.66,NW,309,8.0,8.0,77,0.00,,,0.00,Wunderground v.1.15,2013-04-19 12:31:00,
2013-04-19 07:35:00,34.3,27.8,29.67,West,268,9.0,11.0,77,0.00,,,0.00,Wunderground v.1.15,2013-04-19 12:35:00,
2013-04-19 07:37:00,34.3,27.8,29.67,WNW,292,9.0,11.0,77,0.00,,,0.00,Wunderground v.1.15,2013-04-19 12:37:00,
2013-04-19 07:43:00,34.3,28.2,29.67,West,261,9.0,9.0,78,0.00,,,0.00,Wunderground v.1.15,2013-04-19 12:43:00,
2013-04-19 07:48:00,34.3,27.8,29.67,NW,319,8.0,21.0,77,0.00,,,0.00,Wunderground v.1.15,2013-04-19 12:48:00,
2013-04-19 07:50:00,34.3,28.2,29.67,West,264,8.0,21.0,78,0.00,,,0.00,Wunderground v.1.15,2013-04-19 12:50:00,
2013-04-19 07:51:00,34.3,27.8,29.67,WSW,243,9.0,12.0,77,0.00,,,0.00,Wunderground v.1.15,2013-04-19 12:51:00,
2013-04-19 07:55:00,34.3,27.5,29.67,SW,230,10.0,12.0,76,0.00,,,0.00,Wunderground v.1.15,2013-04-19 12:55:00,
2013-04-19 07:57:00,34.3,27.5,29.67,West,267,10.0,16.0,76,0.00,,,0.00,Wunderground v.1.15,2013-04-19 12:57:00,
2013-04-19 08:01:00,34.3,27.5,29.67,WSW,253,9.0,9.0,76,0.00,,,0.00,Wunderground v.1.15,2013-04-19 13:01:00,
2013-04-19 08:07:00,34.3,27.2,29.68,West,267,7.0,12.0,75,0.00,,,0.00,Wunderground v.1.15,2013-04-19 13:07:00,
2013-04-19 08:11:00,34.3,27.2,29.68,West,270,7.0,7.0,75,0.00,,,0.00,Wunderground v.1.15,2013-04-19 13:11:00,
2013-04-19 08:13:00,34.4,27.3,29.68,West,265,6.0,7.0,75,0.00,,,0.00,Wunderground v.1.15,2013-04-19 13:13:00,
2013-04-19 08:15:00,34.4,27.3,29.68,West,265,7.0,7.0,75,0.00,,,0.00,Wunderground v.1.15,2013-04-19 13:15:00,
2013-04-19 08:20:00,34.6,27.5,29.67,WNW,302,8.0,9.0,75,0.00,,,0.00,Wunderground v.1.15,2013-04-19 13:20:00,
2013-04-19 08:25:00,34.9,27.8,29.67,North,0,7.0,8.0,75,0.00,,,0.00,Wunderground v.1.15,2013-04-19 13:25:00,
2013-04-19 08:31:00,34.9,27.1,29.67,WSW,243,8.0,8.0,73,0.00,,,0.00,Wunderground v.1.15,2013-04-19 13:31:00,
2013-04-19 08:33:00,34.9,27.5,29.68,NW,325,8.0,12.0,74,0.00,,,0.00,Wunderground v.1.15,2013-04-19 13:33:00,
2013-04-19 08:37:00,34.9,27.5,29.68,West,261,9.0,17.0,74,0.00,,,0.00,Wunderground v.1.15,2013-04-19 13:37:00,
2013-04-19 08:40:00,34.9,27.5,29.68,SSW,210,8.0,17.0,74,0.00,,,0.00,Wunderground v.1.15,2013-04-19 13:40:00,
2013-04-19 08:41:00,34.9,27.5,29.68,West,267,8.0,8.0,74,0.00,,,0.00,Wunderground v.1.15,2013-04-19 13:41:00,
2013-04-19 08:43:00,34.9,27.5,29.68,WSW,244,8.0,8.0,74,0.00,,,0.00,Wunderground v.1.15,2013-04-19 13:43:00,
2013-04-19 08:47:00,35.0,27.9,29.68,NNW,335,7.0,14.0,75,0.00,,,0.00,Wunderground v.1.15,2013-04-19 13:47:00,
2013-04-19 08:50:00,34.9,27.8,29.68,WSW,244,8.0,14.0,75,0.00,,,0.00,Wunderground v.1.15,2013-04-19 13:50:00,
2013-04-19 08:51:00,34.9,27.5,29.68,WNW,284,8.0,8.0,74,0.00,,,0.00,Wunderground v.1.15,2013-04-19 13:51:00,
2013-04-19 08:53:00,34.9,27.8,29.68,West,275,9.0,9.0,75,0.00,,,0.00,Wunderground v.1.15,2013-04-19 13:53:00,
2013-04-19 08:55:00,34.9,27.8,29.68,West,267,9.0,11.0,75,0.00,,,0.00,Wunderground v.1.15,2013-04-19 13:55:00,
2013-04-19 09:00:00,34.9,27.8,29.68,West,260,9.0,11.0,75,0.00,,,0.00,Wunderground v.1.15,2013-04-19 14:00:00,
2013-04-19 09:01:00,34.9,28.1,29.68,WSW,247,9.0,10.0,76,0.00,,,0.00,Wunderground v.1.15,2013-04-19 14:01:00,
2013-04-19 09:03:00,34.9,28.1,29.68,SSW,198,9.0,10.0,76,0.00,,,0.00,Wunderground v.1.15,2013-04-19 14:03:00,
2013-04-19 09:08:00,34.7,27.6,29.68,WSW,237,10.0,14.0,75,0.00,,,0.00,Wunderground v.1.15,2013-04-19 14:08:00,
2013-04-19 09:10:00,34.7,27.9,29.68,WSW,257,10.0,14.0,76,0.00,,,0.00,Wunderground v.1.15,2013-04-19 14:10:00,
2013-04-19 09:11:00,34.7,27.9,29.68,SW,234,10.0,11.0,76,0.00,,,0.00,Wunderground v.1.15,2013-04-19 14:11:00,
2013-04-19 09:13:00,34.7,27.9,29.68,West,280,10.0,14.0,76,0.00,,,0.00,Wunderground v.1.15,2013-04-19 14:13:00,
2013-04-19 09:15:00,34.7,27.9,29.68,WSW,253,10.0,14.0,76,0.00,,,0.00,Wunderground v.1.15,2013-04-19 14:15:00,
2013-04-19 09:21:00,34.7,27.9,29.69,WSW,251,10.0,10.0,76,0.00,,,0.00,Wunderground v.1.15,2013-04-19 14:21:00,
2013-04-19 09:25:00,34.7,27.9,29.69,SW,234,9.0,13.0,76,0.00,,,0.00,Wunderground v.1.15,2013-04-19 14:25:00,
2013-04-19 09:27:00,34.9,28.1,29.69,West,260,9.0,13.0,76,0.00,,,0.00,Wunderground v.1.15,2013-04-19 14:27:00,
2013-04-19 09:33:00,34.7,27.9,29.70,West,264,8.0,9.0,76,0.00,,,0.00,Wunderground v.1.15,2013-04-19 14:33:00,
2013-04-19 09:35:00,34.7,27.9,29.70,SW,215,8.0,9.0,76,0.00,,,0.00,Wunderground v.1.15,2013-04-19 14:35:00,
2013-04-19 09:37:00,34.7,27.9,29.70,SW,216,9.0,13.0,76,0.00,,,0.00,Wunderground v.1.15,2013-04-19 14:37:00,
2013-04-19 09:40:00,34.7,27.9,29.70,WSW,247,9.0,13.0,76,0.00,,,0.00,Wunderground v.1.15,2013-04-19 14:40:00,
2013-04-19 09:41:00,34.7,27.9,29.70,WSW,246,10.0,10.0,76,0.00,,,0.00,Wunderground v.1.15,2013-04-19 14:41:00,
2013-04-19 09:43:00,34.6,27.8,29.70,WSW,254,10.0,18.0,76,0.00,,,0.00,Wunderground v.1.15,2013-04-19 14:43:00,
2013-04-19 09:47:00,34.7,27.9,29.70,SW,217,10.0,18.0,76,0.00,,,0.00,Wunderground v.1.15,2013-04-19 14:47:00,
2013-04-19 09:50:00,34.7,27.9,29.70,West,261,11.0,18.0,76,0.00,,,0.00,Wunderground v.1.15,2013-04-19 14:50:00,
2013-04-19 09:51:00,34.9,28.1,29.70,West,281,11.0,20.0,76,0.00,,,0.00,Wunderground v.1.15,2013-04-19 14:51:00,
2013-04-19 09:53:00,35.0,28.2,29.70,WNW,298,10.0,20.0,76,0.00,,,0.00,Wunderground v.1.15,2013-04-19 14:53:00,
2013-04-19 09:55:00,35.4,28.9,29.70,WSW,251,10.0,20.0,77,0.00,,,0.00,Wunderground v.1.15,2013-04-19 14:55:00,
2013-04-19 10:00:00,35.9,28.4,29.70,WSW,254,10.0,20.0,74,0.00,,,0.00,Wunderground v.1.15,2013-04-19 15:00:00,
2013-04-19 10:01:00,36.0,28.2,29.70,WSW,244,10.0,14.0,73,0.00,,,0.00,Wunderground v.1.15,2013-04-19 15:01:00,
2013-04-19 10:05:00,36.3,28.5,29.70,WSW,250,11.0,16.0,73,0.00,,,0.00,Wunderground v.1.15,2013-04-19 15:05:00,
2013-04-19 10:11:00,36.7,28.9,29.70,West,274,9.0,11.0,73,0.00,,,0.00,Wunderground v.1.15,2013-04-19 15:11:00,
2013-04-19 10:20:00,36.4,28.2,29.70,West,274,11.0,11.0,72,0.00,,,0.00,Wunderground v.1.15,2013-04-19 15:20:00,
2013-04-19 10:21:00,36.3,28.1,29.70,WSW,251,10.0,10.0,72,0.00,,,0.00,Wunderground v.1.15,2013-04-19 15:21:00,
2013-04-19 10:23:00,36.3,28.5,29.70,SW,229,10.0,10.0,73,0.00,,,0.00,Wunderground v.1.15,2013-04-19 15:23:00,
2013-04-19 10:25:00,36.3,28.1,29.70,West,268,10.0,10.0,72,0.00,,,0.00,Wunderground v.1.15,2013-04-19 15:25:00,
2013-04-19 10:27:00,36.2,27.7,29.70,West,271,10.0,10.0,71,0.00,,,0.00,Wunderground v.1.15,2013-04-19 15:27:00,
2013-04-19 10:30:00,36.0,27.5,29.70,WSW,256,9.0,15.0,71,0.00,,,0.00,Wunderground v.1.15,2013-04-19 15:30:00,
2013-04-19 10:33:00,35.9,27.4,29.71,WSW,240,11.0,11.0,71,0.00,,,0.00,Wunderground v.1.15,2013-04-19 15:33:00,
2013-04-19 10:35:00,35.7,27.2,29.71,NW,305,10.0,11.0,71,0.00,,,0.00,Wunderground v.1.15,2013-04-19 15:35:00,
2013-04-19 10:38:00,35.7,27.6,29.71,WSW,257,10.0,11.0,72,0.00,,,0.00,Wunderground v.1.15,2013-04-19 15:38:00,
2013-04-19 10:40:00,35.7,27.6,29.71,North,0,9.0,11.0,72,0.00,,,0.00,Wunderground v.1.15,2013-04-19 15:40:00,
2013-04-19 10:41:00,35.7,27.9,29.71,WNW,294,6.0,6.0,73,0.00,,,0.00,Wunderground v.1.15,2013-04-19 15:41:00,
2013-04-19 10:43:00,35.7,27.9,29.71,West,271,6.0,6.0,73,0.00,,,0.00,Wunderground v.1.15,2013-04-19 15:43:00,
2013-04-19 10:45:00,35.7,27.9,29.71,West,265,6.0,13.0,73,0.00,,,0.00,Wunderground v.1.15,2013-04-19 15:45:00,
2013-04-19 10:51:00,35.6,28.1,29.71,West,264,8.0,8.0,74,0.00,,,0.00,Wunderground v.1.15,2013-04-19 15:51:00,
2013-04-19 10:53:00,35.6,27.8,29.71,WSW,240,8.0,12.0,73,0.00,,,0.00,Wunderground v.1.15,2013-04-19 15:53:00,
2013-04-19 11:01:00,35.6,27.8,29.71,NW,311,9.0,12.0,73,0.00,,,0.00,Wunderground v.1.15,2013-04-19 16:01:00,
2013-04-19 11:03:00,35.4,27.6,29.72,SW,230,10.0,12.0,73,0.00,,,0.00,Wunderground v.1.15,2013-04-19 16:03:00,
2013-04-19 11:05:00,35.4,28.3,29.72,WNW,282,9.0,12.0,75,0.00,,,0.00,Wunderground v.1.15,2013-04-19 16:05:00,
2013-04-19 11:11:00,35.6,28.1,29.72,WNW,284,9.0,9.0,74,0.00,,,0.00,Wunderground v.1.15,2013-04-19 16:11:00,
2013-04-19 11:17:00,35.9,28.4,29.73,WSW,258,8.0,14.0,74,0.00,,,0.00,Wunderground v.1.15,2013-04-19 16:17:00,
2013-04-19 11:20:00,35.9,28.7,29.73,SW,230,7.0,14.0,75,0.00,,,0.00,Wunderground v.1.15,2013-04-19 16:20:00,
2013-04-19 11:21:00,35.9,28.7,29.73,West,280,6.0,6.0,75,0.00,,,0.00,Wunderground v.1.15,2013-04-19 16:21:00,
2013-04-19 11:23:00,35.9,28.7,29.73,WSW,247,6.0,6.0,75,0.00,,,0.00,Wunderground v.1.15,2013-04-19 16:23:00,
2013-04-19 11:25:00,35.7,28.2,29.73,West,275,6.0,20.0,74,0.00,,,0.00,Wunderground v.1.15,2013-04-19 16:25:00,
2013-04-19 11:28:00,35.6,27.8,29.73,West,270,7.0,20.0,73,0.00,,,0.00,Wunderground v.1.15,2013-04-19 16:28:00,
2013-04-19 11:30:00,35.6,28.1,29.73,NW,306,7.0,20.0,74,0.00,,,0.00,Wunderground v.1.15,2013-04-19 16:30:00,
2013-04-19 11:35:00,35.6,28.5,29.74,West,267,10.0,10.0,75,0.00,,,0.00,Wunderground v.1.15,2013-04-19 16:35:00,
2013-04-19 11:38:00,35.6,28.1,29.74,WNW,301,9.0,12.0,74,0.00,,,0.00,Wunderground v.1.15,2013-04-19 16:38:00,
2013-04-19 11:40:00,35.6,28.1,29.74,WNW,291,9.0,12.0,74,0.00,,,0.00,Wunderground v.1.15,2013-04-19 16:40:00,
2013-04-19 11:41:00,35.6,27.5,29.74,SSW,205,9.0,11.0,72,0.00,,,0.00,Wunderground v.1.15,2013-04-19 16:41:00,
2013-04-19 11:45:00,35.7,27.9,29.74,West,280,9.0,11.0,73,0.00,,,0.00,Wunderground v.1.15,2013-04-19 16:45:00,
2013-04-19 11:48:00,36.0,28.2,29.74,NNW,329,9.0,11.0,73,0.00,,,0.00,Wunderground v.1.15,2013-04-19 16:48:00,
2013-04-19 11:50:00,36.2,28.4,29.74,NNE,13,9.0,11.0,73,0.00,,,0.00,Wunderground v.1.15,2013-04-19 16:50:00,
2013-04-19 11:51:00,36.3,28.1,29.74,West,265,8.0,12.0,72,0.00,,,0.00,Wunderground v.1.15,2013-04-19 16:51:00,
2013-04-19 11:53:00,36.3,27.8,29.74,WSW,250,8.0,12.0,71,0.00,,,0.00,Wunderground v.1.15,2013-04-19 16:53:00,
2013-04-19 12:00:00,36.0,27.5,29.74,NNW,337,9.0,12.0,71,0.00,,,0.00,Wunderground v.1.15,2013-04-19 17:00:00,
2013-04-19 12:01:00,36.0,27.8,29.74,NW,305,9.0,18.0,72,0.00,,,0.00,Wunderground v.1.15,2013-04-19 17:01:00,
2013-04-19 12:05:00,36.0,27.8,29.74,SW,220,9.0,18.0,72,0.00,,,0.00,Wunderground v.1.15,2013-04-19 17:05:00,
2013-04-19 12:07:00,36.2,28.0,29.74,WNW,299,8.0,18.0,72,0.00,,,0.00,Wunderground v.1.15,2013-04-19 17:07:00,
2013-04-19 12:11:00,36.4,27.9,29.74,NNW,332,8.0,11.0,71,0.00,,,0.00,Wunderground v.1.15,2013-04-19 17:11:00,
2013-04-19 12:13:00,36.7,27.8,29.74,West,274,8.0,11.0,70,0.00,,,0.00,Wunderground v.1.15,2013-04-19 17:13:00,
2013-04-19 12:15:00,36.7,27.5,29.74,WSW,251,9.0,11.0,69,0.00,,,0.00,Wunderground v.1.15,2013-04-19 17:15:00,
2013-04-19 12:21:00,36.7,27.1,29.74,WNW,301,10.0,10.0,68,0.00,,,0.00,Wunderground v.1.15,2013-04-19 17:21:00,
2013-04-19 12:23:00,36.6,27.4,29.74,West,270,9.0,19.0,69,0.00,,,0.00,Wunderground v.1.15,2013-04-19 17:23:00,
2013-04-19 12:28:00,36.4,27.5,29.74,WSW,253,9.0,19.0,70,0.00,,,0.00,Wunderground v.1.15,2013-04-19 17:28:00,
2013-04-19 12:30:00,36.3,27.4,29.74,West,267,9.0,19.0,70,0.00,,,0.00,Wunderground v.1.15,2013-04-19 17:30:00,
2013-04-19 12:31:00,36.3,27.4,29.74,NW,325,10.0,20.0,70,0.00,,,0.00,Wunderground v.1.15,2013-04-19 17:31:00,
2013-04-19 12:33:00,36.2,27.4,29.75,WNW,287,11.0,20.0,70,0.00,,,0.00,Wunderground v.1.15,2013-04-19 17:33:00,
2013-04-19 12:35:00,36.2,27.7,29.75,WNW,295,11.0,20.0,71,0.00,,,0.00,Wunderground v.1.15,2013-04-19 17:35:00,
2013-04-19 12:38:00,36.2,28.0,29.75,NW,308,11.0,20.0,72,0.00,,,0.00,Wunderground v.1.15,2013-04-19 17:38:00,
2013-04-19 12:40:00,36.2,28.0,29.75,West,272,10.0,20.0,72,0.00,,,0.00,Wunderground v.1.15,2013-04-19 17:40:00,
2013-04-19 12:41:00,36.2,28.4,29.75,WNW,292,10.0,10.0,73,0.00,,,0.00,Wunderground v.1.15,2013-04-19 17:41:00,
2013-04-19 12:43:00,36.2,28.0,29.75,West,278,9.0,16.0,72,0.00,,,0.00,Wunderground v.1.15,2013-04-19 17:43:00,
2013-04-19 12:48:00,36.2,28.0,29.76,NW,304,9.0,16.0,72,0.00,,,0.00,Wunderground v.1.15,2013-04-19 17:48:00,
2013-04-19 12:50:00,36.2,28.0,29.76,NW,320,9.0,16.0,72,0.00,,,0.00,Wunderground v.1.15,2013-04-19 17:50:00,
2013-04-19 12:51:00,36.2,28.0,29.76,WNW,299,9.0,9.0,72,0.00,,,0.00,Wunderground v.1.15,2013-04-19 17:51:00,
2013-04-19 12:53:00,36.2,28.0,29.76,NW,320,10.0,10.0,72,0.00,,,0.00,Wunderground v.1.15,2013-04-19 17:53:00,
2013-04-19 12:57:00,36.0,27.5,29.76,WNW,296,11.0,14.0,71,0.00,,,0.00,Wunderground v.1.15,2013-04-19 17:57:00,
2013-04-19 13:01:00,36.3,27.8,29.76,WNW,284,12.0,12.0,71,0.00,,,0.00,Wunderground v.1.15,2013-04-19 18:01:00,
2013-04-19 13:03:00,36.3,27.4,29.76,WNW,299,12.0,12.0,70,0.00,,,0.00,Wunderground v.1.15,2013-04-19 18:03:00,
2013-04-19 13:05:00,36.4,27.5,29.76,NW,306,11.0,13.0,70,0.00,,,0.00,Wunderground v.1.15,2013-04-19 18:05:00,
2013-04-19 13:08:00,36.6,28.1,29.76,NNW,337,10.0,13.0,71,0.00,,,0.00,Wunderground v.1.15,2013-04-19 18:08:00,
2013-04-19 13:10:00,36.6,28.1,29.76,WSW,239,10.0,13.0,71,0.00,,,0.00,Wunderground v.1.15,2013-04-19 18:10:00,
2013-04-19 13:13:00,36.7,27.8,29.76,West,271,9.0,13.0,70,0.00,,,0.00,Wunderground v.1.15,2013-04-19 18:13:00,
2013-04-19 13:15:00,36.9,28.0,29.76,NW,318,8.0,13.0,70,0.00,,,0.00,Wunderground v.1.15,2013-04-19 18:15:00,
2013-04-19 13:17:00,37.0,28.1,29.76,WNW,289,9.0,13.0,70,0.00,,,0.00,Wunderground v.1.15,2013-04-19 18:17:00,
2013-04-19 13:21:00,37.2,27.6,29.76,WNW,285,10.0,17.0,68,0.00,,,0.00,Wunderground v.1.15,2013-04-19 18:21:00,
2013-04-19 13:23:00,37.3,28.1,29.76,WSW,256,10.0,17.0,69,0.00,,,0.00,Wunderground v.1.15,2013-04-19 18:23:00,
2013-04-19 13:28:00,37.6,28.0,29.76,WNW,294,11.0,17.0,68,0.00,,,0.00,Wunderground v.1.15,2013-04-19 18:28:00,
2013-04-19 13:31:00,37.7,28.4,29.76,NW,322,11.0,13.0,69,0.00,,,0.00,Wunderground v.1.15,2013-04-19 18:31:00,
2013-04-19 13:33:00,37.6,28.3,29.76,NW,315,12.0,18.0,69,0.00,,,0.00,Wunderground v.1.15,2013-04-19 18:33:00,
2013-04-19 13:40:00,37.7,28.1,29.76,WNW,296,12.0,18.0,68,0.00,,,0.00,Wunderground v.1.15,2013-04-19 18:40:00,
2013-04-19 13:41:00,37.7,28.1,29.76,WNW,296,11.0,11.0,68,0.00,,,0.00,Wunderground v.1.15,2013-04-19 18:41:00,
2013-04-19 13:43:00,38.0,28.7,29.76,SW,224,10.0,11.0,69,0.00,,,0.00,Wunderground v.1.15,2013-04-19 18:43:00,
2013-04-19 13:45:00,38.0,28.4,29.76,West,272,10.0,15.0,68,0.00,,,0.00,Wunderground v.1.15,2013-04-19 18:45:00,
2013-04-19 13:50:00,38.0,28.4,29.77,WNW,284,10.0,15.0,68,0.00,,,0.00,Wunderground v.1.15,2013-04-19 18:50:00,
2013-04-19 13:51:00,37.9,28.6,29.77,NW,311,10.0,13.0,69,0.00,,,0.00,Wunderground v.1.15,2013-04-19 18:51:00,
2013-04-19 13:53:00,37.9,28.6,29.77,NW,312,11.0,13.0,69,0.00,,,0.00,Wunderground v.1.15,2013-04-19 18:53:00,
2013-04-19 13:55:00,37.9,29.0,29.77,NW,322,10.0,22.0,70,0.00,,,0.00,Wunderground v.1.15,2013-04-19 18:55:00,
2013-04-19 13:57:00,37.7,28.4,29.77,NNW,339,10.0,22.0,69,0.00,,,0.00,Wunderground v.1.15,2013-04-19 18:57:00,
2013-04-19 14:00:00,37.6,28.3,29.77,WSW,247,11.0,11.0,69,0.00,,,0.00,Wunderground v.1.15,2013-04-19 19:00:00,
2013-04-19 14:03:00,37.7,28.8,29.78,WNW,288,11.0,12.0,70,0.00,,,0.00,Wunderground v.1.15,2013-04-19 19:03:00,
2013-04-19 14:07:00,37.9,29.0,29.78,West,267,11.0,12.0,70,0.00,,,0.00,Wunderground v.1.15,2013-04-19 19:07:00,
2013-04-19 14:11:00,38.0,29.4,29.78,North,349,10.0,10.0,71,0.00,,,0.00,Wunderground v.1.15,2013-04-19 19:11:00,
2013-04-19 14:13:00,38.0,29.1,29.78,West,268,10.0,10.0,70,0.00,,,0.00,Wunderground v.1.15,2013-04-19 19:13:00,
2013-04-19 14:17:00,38.2,28.9,29.79,WNW,298,11.0,13.0,69,0.00,,,0.00,Wunderground v.1.15,2013-04-19 19:17:00,
2013-04-19 14:20:00,38.0,28.4,29.79,NW,325,11.0,13.0,68,0.00,,,0.00,Wunderground v.1.15,2013-04-19 19:20:00,
2013-04-19 14:23:00,38.0,28.7,29.79,WNW,282,10.0,11.0,69,0.00,,,0.00,Wunderground v.1.15,2013-04-19 19:23:00,
2013-04-19 14:25:00,38.0,28.7,29.79,WNW,294,10.0,11.0,69,0.00,,,0.00,Wunderground v.1.15,2013-04-19 19:25:00,
2013-04-19 14:27:00,37.9,28.6,29.79,WNW,302,10.0,11.0,69,0.00,,,0.00,Wunderground v.1.15,2013-04-19 19:27:00,
2013-04-19 14:31:00,37.9,28.6,29.79,NW,306,11.0,14.0,69,0.00,,,0.00,Wunderground v.1.15,2013-04-19 19:31:00,
2013-04-19 14:33:00,37.9,28.6,29.80,WNW,292,11.0,14.0,69,0.00,,,0.00,Wunderground v.1.15,2013-04-19 19:33:00,
2013-04-19 14:35:00,38.0,29.1,29.80,NW,318,10.0,14.0,70,0.00,,,0.00,Wunderground v.1.15,2013-04-19 19:35:00,
2013-04-19 14:40:00,38.2,28.9,29.80,NW,311,9.0,18.0,69,0.00,,,0.00,Wunderground v.1.15,2013-04-19 19:40:00,
2013-04-19 14:41:00,38.2,28.6,29.80,NW,313,9.0,20.0,68,0.00,,,0.00,Wunderground v.1.15,2013-04-19 19:41:00,
2013-04-19 14:45:00,38.0,28.4,29.80,NNW,329,10.0,20.0,68,0.00,,,0.00,Wunderground v.1.15,2013-04-19 19:45:00,
2013-04-19 14:48:00,38.0,28.4,29.80,NNW,330,10.0,20.0,68,0.00,,,0.00,Wunderground v.1.15,2013-04-19 19:48:00,
2013-04-19 14:50:00,38.0,28.4,29.80,NW,311,10.0,20.0,68,0.00,,,0.00,Wunderground v.1.15,2013-04-19 19:50:00,
2013-04-19 14:51:00,38.0,28.7,29.80,WNW,295,10.0,10.0,69,0.00,,,0.00,Wunderground v.1.15,2013-04-19 19:51:00,
2013-04-19 14:53:00,38.0,28.4,29.80,WNW,284,9.0,10.0,68,0.00,,,0.00,Wunderground v.1.15,2013-04-19 19:53:00,
2013-04-19 14:58:00,38.2,28.9,29.80,West,261,8.0,10.0,69,0.00,,,0.00,Wunderground v.1.15,2013-04-19 19:58:00,
2013-04-19 15:00:00,38.3,29.4,29.80,West,272,8.0,10.0,70,0.00,,,0.00,Wunderground v.1.15,2013-04-19 20:00:00,
2013-04-19 15:01:00,38.3,29.0,29.80,WSW,254,7.0,10.0,69,0.00,,,0.00,Wunderground v.1.15,2013-04-19 20:01:00,
2013-04-19 15:05:00,38.3,28.7,29.80,NW,326,9.0,17.0,68,0.00,,,0.00,Wunderground v.1.15,2013-04-19 20:05:00,
2013-04-19 15:07:00,38.2,28.6,29.80,West,281,9.0,17.0,68,0.00,,,0.00,Wunderground v.1.15,2013-04-19 20:07:00,
2013-04-19 15:21:00,38.7,29.0,29.80,NW,306,8.0,8.0,68,0.00,,,0.00,Wunderground v.1.15,2013-04-19 20:21:00,
2013-04-19 15:23:00,38.7,29.0,29.80,NW,309,8.0,21.0,68,0.00,,,0.00,Wunderground v.1.15,2013-04-19 20:23:00,
2013-04-19 15:25:00,38.7,29.0,29.80,WNW,288,9.0,21.0,68,0.00,,,0.00,Wunderground v.1.15,2013-04-19 20:25:00,
2013-04-19 15:27:00,38.7,28.3,29.80,NW,323,10.0,21.0,66,0.00,,,0.00,Wunderground v.1.15,2013-04-19 20:27:00,
2013-04-19 15:30:00,38.7,28.3,29.80,NW,325,10.0,21.0,66,0.00,,,0.00,Wunderground v.1.15,2013-04-19 20:30:00,
2013-04-19 15:31:00,38.7,28.3,29.80,NW,315,10.0,11.0,66,0.00,,,0.00,Wunderground v.1.15,2013-04-19 20:31:00,
2013-04-19 15:33:00,38.6,28.6,29.80,West,281,9.0,18.0,67,0.00,,,0.00,Wunderground v.1.15,2013-04-19 20:33:00,
2013-04-19 15:37:00,38.5,28.9,29.80,WNW,302,10.0,18.0,68,0.00,,,0.00,Wunderground v.1.15,2013-04-19 20:37:00,
2013-04-19 15:40:00,38.5,28.9,29.80,SW,229,11.0,18.0,68,0.00,,,0.00,Wunderground v.1.15,2013-04-19 20:40:00,
2013-04-19 15:41:00,38.3,28.7,29.80,WNW,285,11.0,11.0,68,0.00,,,0.00,Wunderground v.1.15,2013-04-19 20:41:00,
2013-04-19 15:43:00,38.3,29.0,29.80,NW,305,11.0,11.0,69,0.00,,,0.00,Wunderground v.1.15,2013-04-19 20:43:00,
2013-04-19 15:45:00,38.3,29.4,29.80,WNW,301,9.0,11.0,70,0.00,,,0.00,Wunderground v.1.15,2013-04-19 20:45:00,
2013-04-19 15:47:00,38.3,28.7,29.80,WSW,257,8.0,11.0,68,0.00,,,0.00,Wunderground v.1.15,2013-04-19 20:47:00,
2013-04-19 15:51:00,38.6,28.9,29.80,WSW,244,8.0,8.0,68,0.00,,,0.00,Wunderground v.1.15,2013-04-19 20:51:00,
2013-04-19 15:53:00,38.6,28.9,29.80,North,0,8.0,16.0,68,0.00,,,0.00,Wunderground v.1.15,2013-04-19 20:53:00,
2013-04-19 15:55:00,38.7,29.0,29.80,NW,312,9.0,16.0,68,0.00,,,0.00,Wunderground v.1.15,2013-04-19 20:55:00,
2013-04-19 15:57:00,38.7,28.3,29.80,WNW,295,10.0,16.0,66,0.00,,,0.00,Wunderground v.1.15,2013-04-19 20:57:00,
2013-04-19 16:00:00,38.9,28.9,29.80,NW,323,10.0,16.0,67,0.00,,,0.00,Wunderground v.1.15,2013-04-19 21:00:00,
2013-04-19 16:01:00,38.9,29.2,29.80,WSW,253,11.0,19.0,68,0.00,,,0.00,Wunderground v.1.15,2013-04-19 21:01:00,
2013-04-19 16:03:00,39.0,29.3,29.81,NW,322,11.0,19.0,68,0.00,,,0.00,Wunderground v.1.15,2013-04-19 21:03:00,
2013-04-19 16:05:00,39.0,29.0,29.81,WSW,248,10.0,19.0,67,0.00,,,0.00,Wunderground v.1.15,2013-04-19 21:05:00,
2013-04-19 16:07:00,39.2,29.2,29.81,WSW,241,9.0,19.0,67,0.00,,,0.00,Wunderground v.1.15,2013-04-19 21:07:00,
2013-04-19 16:10:00,39.3,29.6,29.81,WSW,243,8.0,19.0,68,0.00,,,0.00,Wunderground v.1.15,2013-04-19 21:10:00,
2013-04-19 16:13:00,39.3,29.3,29.81,NW,318,8.0,13.0,67,0.00,,,0.00,Wunderground v.1.15,2013-04-19 21:13:00,
2013-04-19 16:18:00,39.2,29.2,29.81,WNW,296,8.0,13.0,67,0.00,,,0.00,Wunderground v.1.15,2013-04-19 21:18:00,
2013-04-19 16:21:00,39.0,29.3,29.81,NW,316,8.0,9.0,68,0.00,,,0.00,Wunderground v.1.15,2013-04-19 21:21:00,
2013-04-19 16:23:00,38.9,29.2,29.81,NW,315,8.0,9.0,68,0.00,,,0.00,Wunderground v.1.15,2013-04-19 21:23:00,
2013-04-19 16:25:00,38.7,29.0,29.81,West,271,6.0,10.0,68,0.00,,,0.00,Wunderground v.1.15,2013-04-19 21:25:00,
2013-04-19 16:27:00,38.6,30.4,29.81,WNW,284,7.0,10.0,72,0.00,,,0.00,Wunderground v.1.15,2013-04-19 21:27:00,
2013-04-19 16:30:00,38.6,30.4,29.81,WSW,253,8.0,10.0,72,0.00,,,0.00,Wunderground v.1.15,2013-04-19 21:30:00,
2013-04-19 16:33:00,38.6,30.4,29.82,West,261,4.0,7.0,72,0.00,,,0.00,Wunderground v.1.15,2013-04-19 21:33:00,
2013-04-19 16:40:00,38.6,30.0,29.82,NW,322,3.0,8.0,71,0.00,,,0.00,Wunderground v.1.15,2013-04-19 21:40:00,
2013-04-19 16:41:00,38.7,30.1,29.82,WSW,254,6.0,6.0,71,0.00,,,0.00,Wunderground v.1.15,2013-04-19 21:41:00,
2013-04-19 16:43:00,38.9,30.6,29.82,WNW,295,7.0,9.0,72,0.00,,,0.00,Wunderground v.1.15,2013-04-19 21:43:00,
2013-04-19 16:47:00,38.9,30.3,29.83,NW,320,7.0,9.0,71,0.00,,,0.00,Wunderground v.1.15,2013-04-19 21:47:00,
2013-04-19 16:50:00,38.9,30.3,29.83,West,277,8.0,13.0,71,0.00,,,0.00,Wunderground v.1.15,2013-04-19 21:50:00,
2013-04-19 16:53:00,38.9,30.3,29.83,WNW,298,7.0,11.0,71,0.00,,,0.00,Wunderground v.1.15,2013-04-19 21:53:00,
2013-04-19 16:55:00,38.9,30.3,29.83,NW,306,7.0,13.0,71,0.00,,,0.00,Wunderground v.1.15,2013-04-19 21:55:00,
2013-04-19 17:00:00,38.7,29.8,29.83,NW,319,8.0,13.0,70,0.00,,,0.00,Wunderground v.1.15,2013-04-19 22:00:00,
2013-04-19 17:01:00,38.6,30.4,29.83,WNW,296,9.0,9.0,72,0.00,,,0.00,Wunderground v.1.15,2013-04-19 22:01:00,
2013-04-19 17:05:00,38.6,30.7,29.84,West,263,9.0,11.0,73,0.00,,,0.00,Wunderground v.1.15,2013-04-19 22:05:00,
2013-04-19 17:07:00,38.6,30.7,29.84,NW,309,9.0,11.0,73,0.00,,,0.00,Wunderground v.1.15,2013-04-19 22:07:00,
2013-04-19 17:11:00,38.5,30.3,29.84,WNW,299,9.0,9.0,72,0.00,,,0.00,Wunderground v.1.15,2013-04-19 22:11:00,
2013-04-19 17:17:00,38.7,30.4,29.84,NNW,332,9.0,14.0,72,0.00,,,0.00,Wunderground v.1.15,2013-04-19 22:17:00,
2013-04-19 17:21:00,38.9,31.0,29.84,NW,306,10.0,13.0,73,0.00,,,0.00,Wunderground v.1.15,2013-04-19 22:21:00,
2013-04-19 17:23:00,39.0,30.7,29.84,NW,323,9.0,13.0,72,0.00,,,0.00,Wunderground v.1.15,2013-04-19 22:23:00,
2013-04-19 17:27:00,39.2,31.3,29.84,NNW,335,10.0,13.0,73,0.00,,,0.00,Wunderground v.1.15,2013-04-19 22:27:00,
2013-04-19 17:31:00,39.2,30.6,29.84,NW,304,10.0,10.0,71,0.00,,,0.00,Wunderground v.1.15,2013-04-19 22:31:00,
2013-04-19 17:33:00,39.2,30.6,29.85,WNW,302,10.0,10.0,71,0.00,,,0.00,Wunderground v.1.15,2013-04-19 22:33:00,
2013-04-19 17:35:00,39.2,30.6,29.85,SW,219,10.0,14.0,71,0.00,,,0.00,Wunderground v.1.15,2013-04-19 22:35:00,
2013-04-19 17:38:00,39.0,30.4,29.85,NW,313,11.0,14.0,71,0.00,,,0.00,Wunderground v.1.15,2013-04-19 22:38:00,
2013-04-19 17:40:00,39.0,30.4,29.85,West,271,10.0,14.0,71,0.00,,,0.00,Wunderground v.1.15,2013-04-19 22:40:00,
2013-04-19 17:45:00,38.9,30.6,29.85,WNW,298,9.0,12.0,72,0.00,,,0.00,Wunderground v.1.15,2013-04-19 22:45:00,
2013-04-19 17:47:00,38.7,30.8,29.86,SSW,208,8.0,12.0,73,0.00,,,0.00,Wunderground v.1.15,2013-04-19 22:47:00,
2013-04-19 17:51:00,38.3,31.4,29.86,WNW,296,9.0,9.0,76,0.00,,,0.00,Wunderground v.1.15,2013-04-19 22:51:00,
2013-04-19 17:53:00,38.2,31.9,29.86,NW,313,8.0,9.0,78,0.00,,,0.00,Wunderground v.1.15,2013-04-19 22:53:00,
2013-04-19 17:58:00,37.9,32.0,29.86,WNW,296,6.0,9.0,79,0.00,,,0.00,Wunderground v.1.15,2013-04-19 22:58:00,
2013-04-19 18:00:00,37.7,32.1,29.86,NW,309,6.0,9.0,80,0.00,,,0.00,Wunderground v.1.15,2013-04-19 23:00:00,
2013-04-19 18:01:00,37.7,32.1,29.86,NW,305,5.0,5.0,80,0.00,,,0.00,Wunderground v.1.15,2013-04-19 23:01:00,
2013-04-19 18:03:00,37.9,32.3,29.86,NW,305,5.0,6.0,80,0.00,,,0.00,Wunderground v.1.15,2013-04-19 23:03:00,
2013-04-19 18:07:00,37.9,32.0,29.86,NNW,329,7.0,7.0,79,0.00,,,0.00,Wunderground v.1.15,2013-04-19 23:07:00,
2013-04-19 18:10:00,38.0,31.7,29.86,NNW,330,7.0,7.0,78,0.00,,,0.00,Wunderground v.1.15,2013-04-19 23:10:00,
2013-04-19 18:11:00,38.0,31.7,29.86,WNW,282,7.0,10.0,78,0.00,,,0.00,Wunderground v.1.15,2013-04-19 23:11:00,
2013-04-19 18:15:00,38.0,31.1,29.86,North,356,9.0,10.0,76,0.00,,,0.00,Wunderground v.1.15,2013-04-19 23:15:00,
2013-04-19 18:20:00,38.2,31.3,29.87,NW,304,10.0,10.0,76,0.00,,,0.00,Wunderground v.1.15,2013-04-19 23:20:00,
2013-04-19 18:21:00,38.2,31.3,29.87,NW,320,10.0,10.0,76,0.00,,,0.00,Wunderground v.1.15,2013-04-19 23:21:00,
2013-04-19 18:23:00,38.2,31.3,29.87,NW,320,10.0,10.0,76,0.00,,,0.00,Wunderground v.1.15,2013-04-19 23:23:00,
2013-04-19 18:27:00,38.2,31.3,29.87,WNW,285,8.0,10.0,76,0.00,,,0.00,Wunderground v.1.15,2013-04-19 23:27:00,
2013-04-19 18:30:00,38.0,31.1,29.87,NW,305,9.0,10.0,76,0.00,,,0.00,Wunderground v.1.15,2013-04-19 23:30:00,
2013-04-19 18:35:00,37.9,31.0,29.88,NW,326,7.0,14.0,76,0.00,,,0.00,Wunderground v.1.15,2013-04-19 23:35:00,
2013-04-19 18:38:00,37.9,31.0,29.88,NW,306,8.0,14.0,76,0.00,,,0.00,Wunderground v.1.15,2013-04-19 23:38:00,
2013-04-19 18:40:00,37.9,30.7,29.88,WNW,285,7.0,14.0,75,0.00,,,0.00,Wunderground v.1.15,2013-04-19 23:40:00,
2013-04-19 18:41:00,38.0,30.8,29.88,NW,325,8.0,8.0,75,0.00,,,0.00,Wunderground v.1.15,2013-04-19 23:41:00,
2013-04-19 18:43:00,38.0,30.8,29.88,WNW,284,8.0,11.0,75,0.00,,,0.00,Wunderground v.1.15,2013-04-19 23:43:00,
2013-04-19 18:47:00,38.2,30.0,29.88,WSW,254,7.0,11.0,72,0.00,,,0.00,Wunderground v.1.15,2013-04-19 23:47:00,
2013-04-19 18:57:00,38.5,29.6,29.88,NW,308,10.0,10.0,70,0.00,,,0.00,Wunderground v.1.15,2013-04-19 23:57:00,
2013-04-19 19:01:00,38.3,29.7,29.88,NNW,337,9.0,9.0,71,0.00,,,0.00,Wunderground v.1.15,2013-04-20 00:01:00,
2013-04-19 19:03:00,38.3,29.7,29.90,WNW,301,9.0,11.0,71,0.00,,,0.00,Wunderground v.1.15,2013-04-20 00:03:00,
2013-04-19 19:07:00,38.2,28.6,29.90,NW,308,9.0,11.0,68,0.00,,,0.00,Wunderground v.1.15,2013-04-20 00:07:00,
2013-04-19 19:11:00,38.0,28.4,29.90,WNW,296,9.0,12.0,68,0.00,,,0.00,Wunderground v.1.15,2013-04-20 00:11:00,
2013-04-19 19:13:00,38.0,28.4,29.90,NW,325,10.0,13.0,68,0.00,,,0.00,Wunderground v.1.15,2013-04-20 00:13:00,
2013-04-19 19:15:00,38.0,28.4,29.90,WNW,296,10.0,13.0,68,0.00,,,0.00,Wunderground v.1.15,2013-04-20 00:15:00,
2013-04-19 19:17:00,37.9,27.5,29.91,NW,316,10.0,13.0,66,0.00,,,0.00,Wunderground v.1.15,2013-04-20 00:17:00,
2013-04-19 19:21:00,37.9,27.5,29.91,NW,305,11.0,11.0,66,0.00,,,0.00,Wunderground v.1.15,2013-04-20 00:21:00,
2013-04-19 19:25:00,37.9,27.2,29.91,NW,304,10.0,11.0,65,0.00,,,0.00,Wunderground v.1.15,2013-04-20 00:25:00,
2013-04-19 19:27:00,37.9,27.5,29.91,NW,319,9.0,11.0,66,0.00,,,0.00,Wunderground v.1.15,2013-04-20 00:27:00,
2013-04-19 19:30:00,37.7,27.0,29.91,West,281,9.0,11.0,65,0.00,,,0.00,Wunderground v.1.15,2013-04-20 00:30:00,
2013-04-19 19:31:00,37.7,27.0,29.91,NW,306,9.0,11.0,65,0.00,,,0.00,Wunderground v.1.15,2013-04-20 00:31:00,
2013-04-19 19:33:00,37.7,26.6,29.92,WNW,302,9.0,11.0,64,0.00,,,0.00,Wunderground v.1.15,2013-04-20 00:33:00,
2013-04-19 19:35:00,37.7,26.6,29.92,NW,326,9.0,11.0,64,0.00,,,0.00,Wunderground v.1.15,2013-04-20 00:35:00,
2013-04-19 19:37:00,37.7,26.6,29.92,WNW,287,10.0,11.0,64,0.00,,,0.00,Wunderground v.1.15,2013-04-20 00:37:00,
2013-04-19 19:40:00,37.7,27.0,29.92,NNW,328,10.0,11.0,65,0.00,,,0.00,Wunderground v.1.15,2013-04-20 00:40:00,
2013-04-19 19:41:00,37.7,27.0,29.92,NNW,328,9.0,9.0,65,0.00,,,0.00,Wunderground v.1.15,2013-04-20 00:41:00,
2013-04-19 19:45:00,37.6,27.3,29.92,NNW,339,7.0,13.0,66,0.00,,,0.00,Wunderground v.1.15,2013-04-20 00:45:00,
2013-04-19 19:47:00,37.6,27.3,29.93,NNW,328,7.0,13.0,66,0.00,,,0.00,Wunderground v.1.15,2013-04-20 00:47:00,
2013-04-19 19:51:00,37.4,27.1,29.93,NNW,336,8.0,8.0,66,0.00,,,0.00,Wunderground v.1.15,2013-04-20 00:51:00,
2013-04-19 19:53:00,37.3,27.3,29.93,North,352,9.0,9.0,67,0.00,,,0.00,Wunderground v.1.15,2013-04-20 00:53:00,
2013-04-19 19:55:00,37.3,27.3,29.93,NW,320,9.0,14.0,67,0.00,,,0.00,Wunderground v.1.15,2013-04-20 00:55:00,
2013-04-19 19:58:00,37.2,27.2,29.93,NW,322,9.0,14.0,67,0.00,,,0.00,Wunderground v.1.15,2013-04-20 00:58:00,
2013-04-19 20:00:00,37.2,27.6,29.93,WNW,301,9.0,14.0,68,0.00,,,0.00,Wunderground v.1.15,2013-04-20 01:00:00,
2013-04-19 20:01:00,37.2,27.6,29.93,NNW,335,8.0,8.0,68,0.00,,,0.00,Wunderground v.1.15,2013-04-20 01:01:00,
2013-04-19 20:05:00,37.0,27.4,29.94,WNW,295,8.0,12.0,68,0.00,,,0.00,Wunderground v.1.15,2013-04-20 01:05:00,
2013-04-19 20:08:00,37.0,27.4,29.94,WNW,299,9.0,12.0,68,0.00,,,0.00,Wunderground v.1.15,2013-04-20 01:08:00,
2013-04-19 20:10:00,37.0,27.4,29.94,NW,308,9.0,12.0,68,0.00,,,0.00,Wunderground v.1.15,2013-04-20 01:10:00,
2013-04-19 20:13:00,36.9,27.3,29.94,NW,326,9.0,13.0,68,0.00,,,0.00,Wunderground v.1.15,2013-04-20 01:13:00,
2013-04-19 20:15:00,36.9,27.3,29.94,NNW,339,9.0,13.0,68,0.00,,,0.00,Wunderground v.1.15,2013-04-20 01:15:00,
2013-04-19 20:20:00,36.9,27.3,29.95,North,349,8.0,13.0,68,0.00,,,0.00,Wunderground v.1.15,2013-04-20 01:20:00,
2013-04-19 20:21:00,36.9,27.3,29.95,NW,305,9.0,9.0,68,0.00,,,0.00,Wunderground v.1.15,2013-04-20 01:21:00,
2013-04-19 20:25:00,36.7,27.5,29.95,WNW,295,8.0,12.0,69,0.00,,,0.00,Wunderground v.1.15,2013-04-20 01:25:00,
2013-04-19 20:28:00,36.7,27.5,29.95,NNW,346,8.0,12.0,69,0.00,,,0.00,Wunderground v.1.15,2013-04-20 01:28:00,
2013-04-19 20:31:00,36.6,27.7,29.95,WNW,285,7.0,14.0,70,0.00,,,0.00,Wunderground v.1.15,2013-04-20 01:31:00,
2013-04-19 20:33:00,36.6,27.7,29.95,NW,309,7.0,14.0,70,0.00,,,0.00,Wunderground v.1.15,2013-04-20 01:33:00,
2013-04-19 20:37:00,36.6,28.1,29.95,NNW,340,5.0,14.0,71,0.00,,,0.00,Wunderground v.1.15,2013-04-20 01:37:00,
2013-04-19 20:40:00,36.6,-99.9,29.95,WNW,282,5.0,14.0,255,0.00,,,0.00,Wunderground v.1.15,2013-04-20 01:40:00,
2013-04-19 20:41:00,36.6,28.1,29.95,WNW,299,4.0,4.0,71,0.00,,,0.00,Wunderground v.1.15,2013-04-20 01:41:00,
2013-04-19 20:47:00,36.4,27.9,29.97,WNW,294,4.0,7.0,71,0.00,,,0.00,Wunderground v.1.15,2013-04-20 01:47:00,
2013-04-19 20:50:00,36.4,27.9,29.97,NW,319,5.0,7.0,71,0.00,,,0.00,Wunderground v.1.15,2013-04-20 01:50:00,
2013-04-19 20:51:00,36.4,27.5,29.97,NNW,336,5.0,6.0,70,0.00,,,0.00,Wunderground v.1.15,2013-04-20 01:51:00,
2013-04-19 20:57:00,36.4,27.2,29.97,West,278,8.0,8.0,69,0.00,,,0.00,Wunderground v.1.15,2013-04-20 01:57:00,
2013-04-19 21:00:00,36.4,27.2,29.97,WNW,295,8.0,8.0,69,0.00,,,0.00,Wunderground v.1.15,2013-04-20 02:00:00,
2013-04-19 21:03:00,36.4,27.2,29.97,NNW,337,8.0,8.0,69,0.00,,,0.00,Wunderground v.1.15,2013-04-20 02:03:00,
2013-04-19 21:05:00,36.4,27.2,29.97,NW,326,8.0,8.0,69,0.00,,,0.00,Wunderground v.1.15,2013-04-20 02:05:00,
2013-04-19 21:11:00,36.4,27.2,29.97,NW,309,8.0,8.0,69,0.00,,,0.00,Wunderground v.1.15,2013-04-20 02:11:00,
2013-04-19 21:13:00,36.3,27.1,29.97,NW,306,8.0,12.0,69,0.00,,,0.00,Wunderground v.1.15,2013-04-20 02:13:00,
2013-04-19 21:17:00,36.3,27.4,29.98,NW,316,7.0,12.0,70,0.00,,,0.00,Wunderground v.1.15,2013-04-20 02:17:00,
2013-04-19 21:20:00,36.3,27.4,29.98,NW,318,6.0,12.0,70,0.00,,,0.00,Wunderground v.1.15,2013-04-20 02:20:00,
2013-04-19 21:21:00,36.3,27.4,29.98,NW,305,6.0,10.0,70,0.00,,,0.00,Wunderground v.1.15,2013-04-20 02:21:00,
2013-04-19 21:23:00,36.3,27.4,29.98,NNW,333,7.0,10.0,70,0.00,,,0.00,Wunderground v.1.15,2013-04-20 02:23:00,
2013-04-19 21:25:00,36.3,27.4,29.98,NNW,339,7.0,10.0,70,0.00,,,0.00,Wunderground v.1.15,2013-04-20 02:25:00,
2013-04-19 21:27:00,36.3,27.4,29.98,NW,313,7.0,10.0,70,0.00,,,0.00,Wunderground v.1.15,2013-04-20 02:27:00,
2013-04-19 21:31:00,36.3,27.4,29.98,NW,323,7.0,7.0,70,0.00,,,0.00,Wunderground v.1.15,2013-04-20 02:31:00,
2013-04-19 21:33:00,36.2,27.4,29.99,NNW,339,6.0,10.0,70,0.00,,,0.00,Wunderground v.1.15,2013-04-20 02:33:00,
2013-04-19 21:35:00,36.2,27.4,29.99,WNW,285,6.0,10.0,70,0.00,,,0.00,Wunderground v.1.15,2013-04-20 02:35:00,
2013-04-19 21:40:00,36.2,27.4,29.99,NW,312,7.0,10.0,70,0.00,,,0.00,Wunderground v.1.15,2013-04-20 02:40:00,
2013-04-19 21:41:00,36.2,27.4,29.99,NW,315,7.0,7.0,70,0.00,,,0.00,Wunderground v.1.15,2013-04-20 02:41:00,
2013-04-19 21:43:00,36.2,27.4,29.99,WNW,282,7.0,7.0,70,0.00,,,0.00,Wunderground v.1.15,2013-04-20 02:43:00,
2013-04-19 21:48:00,36.2,28.0,30.00,NW,326,6.0,7.0,72,0.00,,,0.00,Wunderground v.1.15,2013-04-20 02:48:00,
2013-04-19 21:51:00,36.0,27.8,30.00,NNW,339,6.0,7.0,72,0.00,,,0.00,Wunderground v.1.15,2013-04-20 02:51:00,
2013-04-19 21:53:00,36.0,27.8,30.00,NW,311,6.0,7.0,72,0.00,,,0.00,Wunderground v.1.15,2013-04-20 02:53:00,
2013-04-19 21:58:00,36.0,27.8,30.00,NNW,346,6.0,7.0,72,0.00,,,0.00,Wunderground v.1.15,2013-04-20 02:58:00,
2013-04-19 22:00:00,36.0,27.8,30.00,NNW,342,6.0,7.0,72,0.00,,,0.00,Wunderground v.1.15,2013-04-20 03:00:00,
2013-04-19 22:01:00,36.0,27.8,30.00,WNW,298,6.0,6.0,72,0.00,,,0.00,Wunderground v.1.15,2013-04-20 03:01:00,
2013-04-19 22:05:00,35.9,27.7,30.00,NW,312,6.0,6.0,72,0.00,,,0.00,Wunderground v.1.15,2013-04-20 03:05:00,
2013-04-19 22:07:00,35.9,27.7,30.00,NW,316,5.0,6.0,72,0.00,,,0.00,Wunderground v.1.15,2013-04-20 03:07:00,
2013-04-19 22:10:00,35.9,28.1,30.00,NW,313,4.0,6.0,73,0.00,,,0.00,Wunderground v.1.15,2013-04-20 03:10:00,
2013-04-19 22:11:00,35.9,28.1,30.00,North,353,3.0,3.0,73,0.00,,,0.00,Wunderground v.1.15,2013-04-20 03:11:00,
2013-04-19 22:13:00,35.9,28.1,30.00,NNW,344,1.0,3.0,73,0.00,,,0.00,Wunderground v.1.15,2013-04-20 03:13:00,
2013-04-19 22:15:00,35.9,28.1,30.00,North,353,1.0,10.0,73,0.00,,,0.00,Wunderground v.1.15,2013-04-20 03:15:00,
2013-04-19 22:18:00,35.9,27.7,30.01,NW,308,2.0,10.0,72,0.00,,,0.00,Wunderground v.1.15,2013-04-20 03:18:00,
2013-04-19 22:21:00,35.9,27.7,30.01,NW,308,3.0,6.0,72,0.00,,,0.00,Wunderground v.1.15,2013-04-20 03:21:00,
2013-04-19 22:23:00,35.9,27.7,30.01,NNW,328,5.0,6.0,72,0.00,,,0.00,Wunderground v.1.15,2013-04-20 03:23:00,
2013-04-19 22:25:00,35.9,27.7,30.01,West,281,5.0,6.0,72,0.00,,,0.00,Wunderground v.1.15,2013-04-20 03:25:00,
2013-04-19 22:30:00,35.7,27.6,30.01,NNW,347,3.0,15.0,72,0.00,,,0.00,Wunderground v.1.15,2013-04-20 03:30:00,
2013-04-19 22:31:00,35.7,27.6,30.01,NW,311,3.0,8.0,72,0.00,,,0.00,Wunderground v.1.15,2013-04-20 03:31:00,
2013-04-19 22:33:00,35.7,27.6,30.01,North,357,3.0,8.0,72,0.00,,,0.00,Wunderground v.1.15,2013-04-20 03:33:00,
2013-04-19 22:37:00,35.7,27.6,30.01,NNW,332,6.0,11.0,72,0.00,,,0.00,Wunderground v.1.15,2013-04-20 03:37:00,
2013-04-19 22:40:00,35.7,27.6,30.01,NW,309,6.0,11.0,72,0.00,,,0.00,Wunderground v.1.15,2013-04-20 03:40:00,
2013-04-19 22:41:00,35.7,27.6,30.01,NW,313,7.0,7.0,72,0.00,,,0.00,Wunderground v.1.15,2013-04-20 03:41:00,
2013-04-19 22:43:00,35.7,27.6,30.01,WNW,295,7.0,11.0,72,0.00,,,0.00,Wunderground v.1.15,2013-04-20 03:43:00,
2013-04-19 22:50:00,35.7,27.2,30.02,NNW,344,7.0,11.0,71,0.00,,,0.00,Wunderground v.1.15,2013-04-20 03:50:00,
2013-04-19 22:51:00,35.7,27.2,30.02,West,275,7.0,12.0,71,0.00,,,0.00,Wunderground v.1.15,2013-04-20 03:51:00,
2013-04-19 22:55:00,35.7,27.2,30.02,NNW,342,7.0,12.0,71,0.00,,,0.00,Wunderground v.1.15,2013-04-20 03:55:00,
2013-04-19 22:58:00,35.7,27.2,30.02,NW,322,8.0,12.0,71,0.00,,,0.00,Wunderground v.1.15,2013-04-20 03:58:00,
2013-04-19 23:00:00,35.7,27.2,30.02,NW,311,8.0,8.0,71,0.00,,,0.00,Wunderground v.1.15,2013-04-20 04:00:00,
2013-04-19 23:01:00,35.7,27.2,30.02,WNW,284,8.0,8.0,71,0.00,,,0.00,Wunderground v.1.15,2013-04-20 04:01:00,
2013-04-19 23:05:00,35.6,27.1,30.02,NNW,333,6.0,8.0,71,0.00,,,0.00,Wunderground v.1.15,2013-04-20 04:05:00,
2013-04-19 23:07:00,35.6,27.1,30.02,NNW,339,6.0,8.0,71,0.00,,,0.00,Wunderground v.1.15,2013-04-20 04:07:00,
2013-04-19 23:11:00,35.6,27.1,30.02,WNW,299,6.0,10.0,71,0.00,,,0.00,Wunderground v.1.15,2013-04-20 04:11:00,
2013-04-19 23:13:00,35.6,27.1,30.02,NW,313,7.0,10.0,71,0.00,,,0.00,Wunderground v.1.15,2013-04-20 04:13:00,
2013-04-19 23:17:00,35.4,26.6,30.03,NW,315,7.0,10.0,70,0.00,,,0.00,Wunderground v.1.15,2013-04-20 04:17:00,
2013-04-19 23:21:00,35.4,26.2,30.03,West,281,7.0,11.0,69,0.00,,,0.00,Wunderground v.1.15,2013-04-20 04:21:00,
2013-04-19 23:23:00,35.4,26.2,30.03,NW,316,6.0,11.0,69,0.00,,,0.00,Wunderground v.1.15,2013-04-20 04:23:00,
2013-04-19 23:28:00,35.4,25.9,30.03,NNW,330,5.0,11.0,68,0.00,,,0.00,Wunderground v.1.15,2013-04-20 04:28:00,
2013-04-19 23:30:00,35.4,26.2,30.03,NW,306,4.0,11.0,69,0.00,,,0.00,Wunderground v.1.15,2013-04-20 04:30:00,
2013-04-19 23:31:00,35.4,25.9,30.03,WNW,299,4.0,7.0,68,0.00,,,0.00,Wunderground v.1.15,2013-04-20 04:31:00,
2013-04-19 23:33:00,35.3,25.8,30.03,NW,326,4.0,10.0,68,0.00,,,0.00,Wunderground v.1.15,2013-04-20 04:33:00,
2013-04-19 23:41:00,35.2,25.0,30.03,NW,319,7.0,8.0,66,0.00,,,0.00,Wunderground v.1.15,2013-04-20 04:41:00,
2013-04-19 23:43:00,35.0,24.8,30.03,NW,313,7.0,8.0,66,0.00,,,0.00,Wunderground v.1.15,2013-04-20 04:43:00,
2013-04-19 23:45:00,35.0,24.8,30.03,NNW,330,7.0,12.0,66,0.00,,,0.00,Wunderground v.1.15,2013-04-20 04:45:00,
2013-04-19 23:47:00,34.9,23.9,30.03,NNW,339,8.0,12.0,64,0.00,,,0.00,Wunderground v.1.15,2013-04-20 04:47:00,
2013-04-19 23:50:00,34.7,23.8,30.03,NW,319,8.0,12.0,64,0.00,,,0.00,Wunderground v.1.15,2013-04-20 04:50:00,
2013-04-19 23:51:00,34.7,23.8,30.03,NNW,333,8.0,8.0,64,0.00,,,0.00,Wunderground v.1.15,2013-04-20 04:51:00,
2013-04-19 23:57:00,34.4,23.5,30.03,NNW,330,8.0,8.0,64,0.00,,,0.00,Wunderground v.1.15,2013-04-20 04:57:00,